Showing default

DIADEME 1, 2674

Orbit data source: Space-Track

DIADEME 1, 2674 is a payload satellite owned by CNES (FR) in LEO that was launched on Wed, 08 Feb 1967 UTC via a DIAMANT A launch vehicle from the Hamma Guira Space Track Range (HGSTR). Payload-class satellites include a variety of spacecraft equipped with specific instruments for various scientific and technological missions. These include communications satellites like Starlink; space stations such as the ISS; scientific satellites like the Hubble; Earth observation satellites from companies like Planet Labs, Umbra, and HawkEye 360; GPS; miniature CubeSats for education and research; and military/defense satellites.

Loading next visibility...
Identifier
2674, 1967-011A
Orbit
LEO
Country
Flag of FRFR
Related business
Manufacturer
CNES
Mission
Civil Geodetic
Bus & Motor
D-1, Unknown motor
Mass
23 kg wet, 23 kg dry
Launch date (UTC)
1967-02-08 (59 years ago)
Launch vehicle
DIAMANT A
Launch site
Hamma Guira Space Track Range (HGSTR)
Object type
Payload
Rocket body
Debris
Shape & HBR
Cyl + 4 Pan, 0.8 m
Radar Cross Section
0.455 m², Medium (>0.1 m² and < 1m²)

Expand to show TLE details & history
Last TLE update: 5 hours ago

TLE from 5 hours ago
0 DIADEME 1
1 02674U 67011A   25259.29420186  .00007119  00000-0  81925-3 0  9995
2 02674  39.9183 357.0564 0217461 165.3262 195.3961 14.70271325 49717
Epoch: 2025-09-16T07:03Z
TLE epoch observation values (Epoch: 2025-09-16T07:03:39.04Z)
Latitude
-0.00004°
Longitude
-104.34288°
Altitude
807.417 km
Speed
7.373 km/s
True Right ascension
23h 48m 13s
True Declination
0° 00' 00"
Sunlit
Object was in full shadow at epoch
Visualization orbit readout
Latitude
Unknown
Longitude
Unknown
Altitude
Unknown
Speed
Unknown
Apparent Right ascension
Unknown
Apparent Declination
Unknown
Sunlit
N/A
Visualization observer readout
Local Sidereal Time
05:03:30
Azimuth
Unknown
Elevation
Unknown
Doppler factor
Unknown
Orbital elements
Apogee altitude
815.71 km
Perigee altitude
509.493 km
Semi-major axis
7,040.738 km
Eccentricity
0.02175
Inclination
39.9183°
RAAN
357.0564°
Arg. of periapsis
165.3262°
True anomaly
194.75144°
Mean anomaly
195.3961°
Eccentric anomaly
195.07211°
Mean motion
3.6738 °/min
Orbital period
97.99 mins
BSTAR
0.00081925
Loading maneuver chart data...
Computing Atmospheric mass density...

Documentation

Showing up to 5 results
|